Terug naar catalogus

THOR ABLESTAR DEB

ActiefLEO
NORAD 403·DEBRIS·🇺🇸 United States

Gelanceerd Jun 29, 1961 vanaf Cape Canaveral Space Force Station

Loading…

Volgende Passages (komende 24 uur)

TLE

VersSource: Space-Track

Epoch: Sep 14, 2026, 11:18 UTC

1 00403U 61015EC  26257.47143541 -.00000023  00000-0  48052-4 0  9990
2 00403  66.8400  72.1060 0015901 127.6454 260.5056 13.81247771283484

Volg THOR ABLESTAR DEB in realtime met AllMySat

Download on the App Store